Date String (YYYY-MM-DD hh:mm:ss) UTC,Instrument flags,Ambient pressure (hPa),Sample flow (lpm),Bypass flow (lpm),Sample temperature (°C),Ambient temperature (°C),ASC tube jacket temperature (°C),LED temperature (°C),Box temperature (°C),Sample RH (%),Span deviation,Mass concentration (μg/m³),Mass concentration (μg/m³),Mass concentration (μg/m³)
DateTimeUTC,F1_M11,P_M11,Q1_M11,Q2_M11,T1_M11,T2_M11,T3_M11,T4_M11,T5_M11,U1_M11,ZSPAN_M11,X2_M11,X0_M11,X1_M11
2021-11-23 06:00:00,,0825.6,5.00,0.00,27.5,26.4,00.0,36.5,29.2,05.6,0000.0,0000.80,0001.75,0000.59
2021-11-23 06:01:00,,0825.7,5.00,0.00,27.5,26.4,00.0,36.5,29.2,05.6,0000.0,0000.84,0001.97,0000.59
2021-11-23 06:02:00,,0825.6,5.00,0.00,27.5,26.4,00.0,36.5,29.1,05.6,0000.0,0000.86,0002.16,0000.58
2021-11-23 06:03:00,,0825.6,4.99,0.00,27.4,26.4,00.0,36.5,29.1,05.6,0000.0,0000.85,0002.15,0000.58
2021-11-23 06:04:00,,0825.6,5.00,0.00,27.4,26.4,00.0,36.5,29.1,05.7,0000.0,0000.86,0002.18,0000.57
2021-11-23 06:05:00,,0825.7,5.01,0.00,27.4,26.4,00.0,36.5,29.1,05.7,0000.0,0000.87,0002.20,0000.57
2021-11-23 06:06:00,,0825.7,4.99,0.00,27.4,26.3,00.0,36.5,29.1,05.7,0000.0,0000.86,0002.22,0000.57
2021-11-23 06:07:00,,0825.6,5.00,0.00,27.4,26.3,00.0,36.5,29.1,05.7,0000.0,0000.85,0002.20,0000.58
2021-11-23 06:08:00,,0825.6,5.02,0.00,27.4,26.4,00.0,36.5,29.1,05.9,0000.0,0000.85,0001.93,0000.59
2021-11-23 06:09:00,,0825.6,5.00,0.00,27.4,26.3,00.0,36.5,29.1,05.9,0000.0,0000.87,0001.87,0000.60
2021-11-23 06:10:00,,0825.7,4.99,0.00,27.4,26.3,00.0,36.5,29.1,05.9,0000.0,0000.87,0001.83,0000.61
2021-11-23 06:11:00,,0825.7,5.01,0.00,27.4,26.4,00.0,36.5,29.2,05.9,0000.0,0000.87,0001.73,0000.64
2021-11-23 06:12:00,,0825.6,4.99,0.00,27.4,26.4,00.0,36.5,29.2,05.9,0000.0,0000.84,0001.45,0000.65
2021-11-23 06:13:00,,0825.6,5.01,0.00,27.4,26.4,00.0,36.5,29.2,05.9,0000.0,0000.81,0001.26,0000.65
2021-11-23 06:14:00,,0825.6,4.99,0.00,27.4,26.4,00.0,36.5,29.1,05.9,0000.0,0000.81,0001.22,0000.66
2021-11-23 06:15:00,,0825.6,5.01,0.00,27.4,26.4,00.0,36.4,29.1,05.9,0000.0,0000.81,0001.63,0000.67
2021-11-23 06:16:00,,0825.6,5.00,0.00,27.3,26.4,00.0,36.4,29.1,05.9,0000.0,0000.83,0002.13,0000.68
2021-11-23 06:17:00,,0825.6,5.01,0.00,27.3,26.4,00.0,36.4,29.1,06.0,0000.0,0000.88,0002.26,0000.70
2021-11-23 06:18:00,,0825.6,4.99,0.00,27.3,26.4,00.0,36.4,29.0,06.0,0000.0,0000.91,0002.34,0000.71
2021-11-23 06:19:00,,0825.6,5.00,0.00,27.3,26.4,00.0,36.4,29.0,06.1,0000.0,0000.98,0002.45,0000.73
2021-11-23 06:20:00,,0825.6,5.00,0.00,27.3,26.4,00.0,36.4,29.0,06.1,0000.0,0001.05,0002.72,0000.77
2021-11-23 06:21:00,,0825.6,4.99,0.00,27.3,26.4,00.0,36.4,29.0,06.2,0000.0,0001.16,0002.98,0000.81
2021-11-23 06:22:00,,0825.6,4.99,0.00,27.3,26.4,00.0,36.4,29.0,06.2,0000.0,0001.22,0003.07,0000.85
2021-11-23 06:23:00,,0825.6,5.00,0.00,27.3,26.4,00.0,36.4,29.1,06.3,0000.0,0001.34,0003.27,0000.91
2021-11-23 06:24:00,,0825.6,5.00,0.00,27.3,26.4,00.0,36.4,29.1,06.3,0000.0,0001.45,0003.95,0000.97
2021-11-23 06:25:00,,0825.6,5.00,0.00,27.3,26.4,00.0,36.4,29.0,06.3,0000.0,0001.54,0004.39,0001.03
2021-11-23 06:26:00,,0825.6,4.99,0.00,27.3,26.4,00.0,36.4,29.0,06.3,0000.0,0001.67,0004.27,0001.08
2021-11-23 06:27:00,,0825.5,5.01,0.00,27.3,26.3,00.0,36.4,29.0,06.3,0000.0,0001.76,0003.89,0001.14
2021-11-23 06:28:00,,0825.5,5.00,0.00,27.3,26.3,00.0,36.3,29.0,06.3,0000.0,0001.84,0004.08,0001.19
2021-11-23 06:29:00,,0825.5,5.01,0.00,27.3,26.4,00.0,36.3,29.0,06.3,0000.0,0001.97,0004.52,0001.25
2021-11-23 06:30:00,,0825.5,5.00,0.00,27.3,26.4,00.0,36.3,29.0,06.3,0000.0,0002.04,0005.62,0001.28
2021-11-23 06:31:00,,0825.5,5.00,0.00,27.3,26.4,00.0,36.3,29.0,06.3,0000.0,0002.06,0005.53,0001.30
2021-11-23 06:32:00,,0825.6,5.00,0.00,27.3,26.4,00.0,36.3,29.0,06.3,0000.0,0002.06,0005.84,0001.32
2021-11-23 06:33:00,,0825.6,5.01,0.00,27.3,26.4,00.0,36.3,29.0,06.3,0000.0,0002.13,0007.10,0001.33
2021-11-23 06:34:00,,0825.6,5.00,0.00,27.3,26.4,00.0,36.3,29.1,06.2,0000.0,0002.14,0007.08,0001.32
2021-11-23 06:35:00,,0825.6,5.00,0.00,27.3,26.4,00.0,36.3,29.0,06.2,0000.0,0002.11,0006.53,0001.31
2021-11-23 06:36:00,,0825.6,4.99,0.00,27.3,26.4,00.0,36.3,29.0,06.2,0000.0,0002.10,0006.21,0001.30
2021-11-23 06:37:00,,0825.6,5.01,0.00,27.3,26.4,00.0,36.3,29.0,06.2,0000.0,0002.12,0006.87,0001.31
2021-11-23 06:38:00,,0825.6,5.00,0.00,27.3,26.4,00.0,36.3,29.0,06.2,0000.0,0002.11,0007.92,0001.30
2021-11-23 06:39:00,,0825.5,5.00,0.00,27.3,26.4,00.0,36.3,29.0,06.2,0000.0,0002.04,0008.03,0001.28
2021-11-23 06:40:00,,0825.5,4.99,0.00,27.3,26.4,00.0,36.3,29.0,06.2,0000.0,0001.99,0008.23,0001.27
2021-11-23 06:41:00,,0825.5,4.99,0.00,27.3,26.3,00.0,36.3,29.0,06.2,0000.0,0001.92,0007.61,0001.26
2021-11-23 06:42:00,,0825.4,5.01,0.00,27.2,26.3,00.0,36.3,29.0,06.2,0000.0,0001.88,0007.56,0001.23
2021-11-23 06:43:00,,0825.5,5.00,0.00,27.2,26.3,00.0,36.3,29.0,06.2,0000.0,0001.85,0007.19,0001.20
2021-11-23 06:44:00,,0825.5,5.00,0.00,27.2,26.3,00.0,36.3,29.0,06.2,0000.0,0001.87,0006.57,0001.20
2021-11-23 06:45:00,,0825.4,4.99,0.00,27.2,26.3,00.0,36.3,29.0,06.1,0000.0,0001.82,0007.31,0001.19
2021-11-23 06:46:00,,0825.5,5.00,0.00,27.2,26.3,00.0,36.3,28.9,06.0,0000.0,0001.78,0007.52,0001.16
2021-11-23 06:47:00,,0825.5,5.01,0.00,27.2,26.3,00.0,36.3,29.0,05.9,0000.0,0001.73,0007.50,0001.12
2021-11-23 06:48:00,,0825.4,5.01,0.00,27.2,26.3,00.0,36.3,29.0,06.0,0000.0,0001.63,0006.65,0001.07
2021-11-23 06:49:00,,0825.4,5.00,0.00,27.2,26.2,00.0,36.3,28.9,06.0,0000.0,0001.56,0005.16,0001.03
2021-11-23 06:50:00,,0825.4,4.98,0.00,27.1,26.2,00.0,36.2,28.9,06.0,0000.0,0001.51,0004.63,0001.00
2021-11-23 06:51:00,,0825.4,5.00,0.00,27.1,26.2,00.0,36.2,28.9,06.0,0000.0,0001.45,0004.46,0000.96
2021-11-23 06:52:00,,0825.5,5.00,0.00,27.1,26.2,00.0,36.2,28.8,06.1,0000.0,0001.42,0004.48,0000.94
2021-11-23 06:53:00,,0825.4,5.00,0.00,27.1,26.1,00.0,36.2,28.8,06.1,0000.0,0001.43,0004.56,0000.93
2021-11-23 06:54:00,,0825.4,5.01,0.00,27.0,26.1,00.0,36.2,28.8,06.1,0000.0,0001.39,0004.54,0000.91
2021-11-23 06:55:00,,0825.3,5.01,0.00,27.0,26.1,00.0,36.2,28.7,06.1,0000.0,0001.27,0004.35,0000.87
2021-11-23 06:56:00,,0825.4,5.01,0.00,27.0,26.0,00.0,36.1,28.7,06.1,0000.0,0001.24,0003.72,0000.84
2021-11-23 06:57:00,,0825.4,5.00,0.00,27.0,26.0,00.0,36.1,28.7,06.1,0000.0,0001.22,0003.39,0000.83
2021-11-23 06:58:00,,0825.4,5.00,0.00,27.0,26.0,00.0,36.1,28.6,06.0,0000.0,0001.21,0003.30,0000.85
2021-11-23 06:59:00,,0825.3,5.00,0.00,27.0,26.0,00.0,36.1,28.6,06.0,0000.0,0001.20,0003.24,0000.86
